EIN893 LPFR-EICK

Flight info

Callsign EIN893
Flight time N/A
Altitude 36000
Route ALAGU DCT PINEK DCT ADVAT/M077F370 T290 GELPO DCT JABEX/N0440F370 DCT SOVIX SOVIX1G
Aircraft A320/M-SDE3FGHIRWY/LB1

Departure

Time 2026-04-27 09:03
Airport Faro - Gago Coutinho International Airport (LPFR)

Arrival

Time N/A
Airport Cork International Airport (EICK)
Time Latitude Longitude Altitude Speed Heading
2026-04-27 08:30 37.01917 -7.96837 20 ft 0 kts 10°
2026-04-27 08:54 37.01916 -7.96837 20 ft 2 kts 10°
2026-04-27 08:54 37.01892 -7.96842 22 ft 4 kts
2026-04-27 08:55 37.01865 -7.96844 22 ft 4 kts 355°
2026-04-27 08:55 37.01839 -7.96837 22 ft 4 kts 326°
2026-04-27 08:55 37.01828 -7.96821 20 ft 1 kts 279°
2026-04-27 08:55 37.01828 -7.96816 23 ft 0 kts 279°
2026-04-27 08:58 37.01828 -7.96817 24 ft 1 kts 279°
2026-04-27 08:58 37.01829 -7.96831 20 ft 2 kts 279°
2026-04-27 08:58 37.01829 -7.96857 20 ft 3 kts 256°
2026-04-27 08:58 37.01805 -7.96877 20 ft 5 kts 199°
2026-04-27 08:59 37.01773 -7.96889 20 ft 4 kts 191°
2026-04-27 08:59 37.01734 -7.96898 20 ft 9 kts 191°
2026-04-27 08:59 37.01681 -7.96957 22 ft 14 kts 264°
2026-04-27 08:59 37.01701 -7.97102 22 ft 20 kts 282°
2026-04-27 09:00 37.01730 -7.97299 20 ft 26 kts 280°
2026-04-27 09:00 37.01764 -7.97538 20 ft 29 kts 280°
2026-04-27 09:00 37.01797 -7.97774 20 ft 26 kts 280°
2026-04-27 09:00 37.01831 -7.98012 23 ft 29 kts 280°
2026-04-27 09:01 37.01867 -7.98273 20 ft 32 kts 280°
2026-04-27 09:01 37.01897 -7.98500 20 ft 12 kts 274°
2026-04-27 09:01 37.01841 -7.98565 21 ft 11 kts 195°
2026-04-27 09:01 37.01777 -7.98582 21 ft 8 kts 189°
2026-04-27 09:02 37.01730 -7.98583 22 ft 5 kts 148°
2026-04-27 09:02 37.01725 -7.98561 24 ft 1 kts 100°
2026-04-27 09:02 37.01715 -7.98493 23 ft 31 kts 100°
2026-04-27 09:02 37.01635 -7.97912 21 ft 100 kts 100°
2026-04-27 09:03 37.01479 -7.96822 28 ft 151 kts 101°
2026-04-27 09:03 37.01294 -7.95551 631 ft 147 kts 97°
2026-04-27 09:03 37.01097 -7.94292 1251 ft 147 kts 99°
2026-04-27 09:03 37.00889 -7.92960 1614 ft 168 kts 99°
2026-04-27 09:04 37.00665 -7.91425 1954 ft 191 kts 99°
2026-04-27 09:04 37.00416 -7.89702 2316 ft 210 kts 99°
2026-04-27 09:04 37.00147 -7.87860 2936 ft 218 kts 100°
2026-04-27 09:04 36.99871 -7.85972 3631 ft 229 kts 99°
2026-04-27 09:05 36.99571 -7.83923 4088 ft 248 kts 99°
2026-04-27 09:05 36.99568 -7.81754 4896 ft 254 kts 76°
2026-04-27 09:05 37.00369 -7.79774 5767 ft 260 kts 54°
2026-04-27 09:05 37.01508 -7.77996 6619 ft 264 kts 53°
2026-04-27 09:06 37.02676 -7.76203 7402 ft 268 kts 52°
2026-04-27 09:06 37.03866 -7.74388 8198 ft 272 kts 52°
2026-04-27 09:06 37.05074 -7.72542 8979 ft 276 kts 52°
2026-04-27 09:06 37.06490 -7.70880 9758 ft 284 kts 36°
2026-04-27 09:07 37.08294 -7.69798 10407 ft 297 kts 19°
2026-04-27 09:07 37.10393 -7.69408 10637 ft 323 kts
2026-04-27 09:07 37.12694 -7.69239 11067 ft 337 kts
2026-04-27 09:07 37.15052 -7.69071 11732 ft 342 kts
2026-04-27 09:08 37.17451 -7.68894 12434 ft 347 kts
2026-04-27 09:08 37.19880 -7.68708 13119 ft 352 kts
2026-04-27 09:08 37.22344 -7.68511 13794 ft 357 kts
2026-04-27 09:08 37.24833 -7.68308 14425 ft 360 kts
2026-04-27 09:09 37.27351 -7.68099 15047 ft 364 kts
2026-04-27 09:09 37.29886 -7.67891 15673 ft 367 kts
2026-04-27 09:09 37.32446 -7.67685 16301 ft 370 kts
2026-04-27 09:09 37.34993 -7.67480 16910 ft 373 kts
2026-04-27 09:10 37.37591 -7.67269 17550 ft 375 kts
2026-04-27 09:10 37.40206 -7.67057 18144 ft 379 kts
2026-04-27 09:10 37.42847 -7.66843 18691 ft 381 kts
2026-04-27 09:10 37.45509 -7.66629 19214 ft 385 kts
2026-04-27 09:11 37.48199 -7.66415 19714 ft 388 kts
2026-04-27 09:11 37.50909 -7.66199 20235 ft 391 kts
2026-04-27 09:11 37.53638 -7.65979 20723 ft 395 kts
2026-04-27 09:11 37.56398 -7.65752 21230 ft 399 kts
2026-04-27 09:12 37.59172 -7.65522 21743 ft 402 kts
2026-04-27 09:12 37.61978 -7.65289 22236 ft 405 kts
2026-04-27 09:12 37.64803 -7.65053 22763 ft 408 kts
2026-04-27 09:12 37.67649 -7.64817 23247 ft 412 kts
2026-04-27 09:13 37.70518 -7.64585 23720 ft 415 kts
2026-04-27 09:13 37.73405 -7.64355 24139 ft 417 kts
2026-04-27 09:13 37.76307 -7.64124 24544 ft 419 kts
2026-04-27 09:13 37.79185 -7.63893 24941 ft 421 kts
2026-04-27 09:14 37.82124 -7.63653 25327 ft 424 kts
2026-04-27 09:14 37.85073 -7.63407 25707 ft 426 kts
2026-04-27 09:14 37.88044 -7.63159 26082 ft 428 kts
2026-04-27 09:14 37.91022 -7.62911 26447 ft 431 kts
2026-04-27 09:15 37.94021 -7.62665 26807 ft 433 kts
2026-04-27 09:15 37.97031 -7.62422 27150 ft 435 kts
2026-04-27 09:15 38.00068 -7.62174 27492 ft 438 kts
2026-04-27 09:15 38.03114 -7.61923 27838 ft 440 kts
2026-04-27 09:16 38.06179 -7.61671 28179 ft 442 kts
2026-04-27 09:16 38.09250 -7.61684 28509 ft 443 kts 353°
2026-04-27 09:16 38.12297 -7.62281 28831 ft 444 kts 347°
2026-04-27 09:16 38.15337 -7.63041 29154 ft 446 kts 347°
2026-04-27 09:17 38.18386 -7.63803 29462 ft 448 kts 347°
2026-04-27 09:17 38.21451 -7.64566 29776 ft 450 kts 347°
2026-04-27 09:17 38.24531 -7.65334 30080 ft 452 kts 347°
2026-04-27 09:17 38.27635 -7.66104 30332 ft 454 kts 347°
2026-04-27 09:18 38.30701 -7.66863 30563 ft 456 kts 347°
2026-04-27 09:18 38.33833 -7.67640 30792 ft 458 kts 347°
2026-04-27 09:18 38.36975 -7.68420 31013 ft 459 kts 347°
2026-04-27 09:18 38.40122 -7.69203 31237 ft 461 kts 347°
2026-04-27 09:19 38.43241 -7.69982 31491 ft 462 kts 347°
2026-04-27 09:19 38.46400 -7.70775 31785 ft 461 kts 347°
2026-04-27 09:19 38.49558 -7.71567 32083 ft 461 kts 347°
2026-04-27 09:19 38.52704 -7.72355 32381 ft 461 kts 347°
2026-04-27 09:20 38.55861 -7.73145 32679 ft 461 kts 347°
2026-04-27 09:20 38.58975 -7.73922 32967 ft 460 kts 347°
2026-04-27 09:20 38.62128 -7.74709 33261 ft 460 kts 347°
2026-04-27 09:20 38.65280 -7.75499 33570 ft 460 kts 347°
2026-04-27 09:21 38.68412 -7.76289 33911 ft 458 kts 347°
2026-04-27 09:21 38.71550 -7.77080 34211 ft 457 kts 347°
2026-04-27 09:21 38.74630 -7.77856 34478 ft 456 kts 347°
2026-04-27 09:21 38.77745 -7.78642 34731 ft 456 kts 347°
2026-04-27 09:22 38.80872 -7.79431 34988 ft 455 kts 347°
2026-04-27 09:22 38.83985 -7.80214 35235 ft 454 kts 347°
2026-04-27 09:22 38.87050 -7.80987 35459 ft 454 kts 347°
2026-04-27 09:22 38.90154 -7.81771 35700 ft 453 kts 347°
2026-04-27 09:23 38.93251 -7.82552 35947 ft 452 kts 347°
2026-04-27 09:23 38.99378 -7.84105 36049 ft 448 kts 346°
2026-04-27 09:24 39.05489 -7.85657 36049 ft 446 kts 346°
2026-04-27 09:24 39.11546 -7.87206 36048 ft 445 kts 346°
2026-04-27 09:25 39.17640 -7.88763 36047 ft 445 kts 346°
2026-04-27 09:25 39.23716 -7.90315 36049 ft 445 kts 346°
2026-04-27 09:26 39.29763 -7.91857 36054 ft 445 kts 346°
2026-04-27 09:26 39.35844 -7.93413 36066 ft 445 kts 346°
2026-04-27 09:27 39.41925 -7.94974 36066 ft 444 kts 346°
2026-04-27 09:27 39.47969 -7.96529 36065 ft 444 kts 346°
2026-04-27 09:28 39.54044 -7.98087 36070 ft 444 kts 346°
2026-04-27 09:28 39.60107 -7.99644 36071 ft 443 kts 346°
2026-04-27 09:29 39.66124 -8.01204 36070 ft 443 kts 346°
2026-04-27 09:29 39.72187 -8.02774 36069 ft 443 kts 346°
2026-04-27 09:30 39.78198 -8.04337 36078 ft 442 kts 346°
2026-04-27 09:30 39.84244 -8.05909 36077 ft 442 kts 346°
2026-04-27 09:31 39.90295 -8.07477 36072 ft 442 kts 346°
2026-04-27 09:31 39.96295 -8.09040 36071 ft 442 kts 346°
2026-04-27 09:32 40.02333 -8.10616 36073 ft 442 kts 346°
2026-04-27 09:32 40.08331 -8.12194 36070 ft 442 kts 346°
2026-04-27 09:33 40.14365 -8.13783 36076 ft 441 kts 346°
2026-04-27 09:33 40.19386 -8.15104 36080 ft 441 kts 346°
2026-04-27 09:34 40.25376 -8.16673 36075 ft 441 kts 346°
2026-04-27 09:34 40.31413 -8.18256 36076 ft 441 kts 346°
2026-04-27 09:35 40.37397 -8.19838 36073 ft 440 kts 345°
2026-04-27 09:35 40.43413 -8.21438 36072 ft 440 kts 345°
2026-04-27 09:36 40.49401 -8.23023 36069 ft 440 kts 346°
2026-04-27 09:36 40.55417 -8.24609 36072 ft 440 kts 345°
2026-04-27 09:37 40.61435 -8.26206 36084 ft 440 kts 345°
2026-04-27 09:37 40.67423 -8.27805 36081 ft 440 kts 345°
2026-04-27 09:38 40.73449 -8.29420 36083 ft 441 kts 345°
2026-04-27 09:38 40.79428 -8.31014 36077 ft 441 kts 345°
2026-04-27 09:39 40.85462 -8.32638 36085 ft 440 kts 345°
2026-04-27 09:39 40.91456 -8.34253 36078 ft 440 kts 345°
2026-04-27 09:40 40.97482 -8.35872 36067 ft 440 kts 345°
2026-04-27 09:40 41.03485 -8.37471 36067 ft 441 kts 345°
2026-04-27 09:41 41.09479 -8.39077 36077 ft 441 kts 345°
2026-04-27 09:41 41.15505 -8.40712 36070 ft 440 kts 345°
2026-04-27 09:42 41.21471 -8.42346 36067 ft 440 kts 345°
2026-04-27 09:42 41.27483 -8.43984 36071 ft 440 kts 345°
2026-04-27 09:43 41.33507 -8.45612 36068 ft 440 kts 345°
2026-04-27 09:43 41.39480 -8.47228 36062 ft 440 kts 345°
2026-04-27 09:44 41.45475 -8.48870 36058 ft 439 kts 345°
2026-04-27 09:44 41.51432 -8.50519 36055 ft 439 kts 345°
2026-04-27 09:45 41.57431 -8.52167 36048 ft 440 kts 345°
2026-04-27 09:45 41.63441 -8.53796 36047 ft 440 kts 345°
2026-04-27 09:46 41.69419 -8.55435 36057 ft 440 kts 345°
2026-04-27 09:46 41.75434 -8.57103 36052 ft 440 kts 345°
2026-04-27 09:47 41.81408 -8.58759 36050 ft 441 kts 345°
2026-04-27 09:47 41.87428 -8.60412 36051 ft 441 kts 345°
2026-04-27 09:48 41.93438 -8.61995 36058 ft 441 kts 346°
2026-04-27 09:48 41.99478 -8.63565 36061 ft 441 kts 346°
2026-04-27 09:49 42.05513 -8.65152 36064 ft 441 kts 345°
2026-04-27 09:49 42.11545 -8.66748 36071 ft 441 kts 345°
2026-04-27 09:50 42.17553 -8.68337 36073 ft 441 kts 345°
2026-04-27 09:50 42.23560 -8.69939 36088 ft 441 kts 345°
2026-04-27 09:51 42.29603 -8.71548 36099 ft 442 kts 345°
2026-04-27 09:51 42.35611 -8.73152 36104 ft 441 kts 345°
2026-04-27 09:52 42.41664 -8.74768 36100 ft 441 kts 345°
2026-04-27 09:52 42.47670 -8.76379 36103 ft 441 kts 345°
2026-04-27 09:53 42.53708 -8.78008 36106 ft 441 kts 345°
2026-04-27 09:53 42.59690 -8.79617 36102 ft 441 kts 345°
2026-04-27 09:54 42.65720 -8.81231 36100 ft 441 kts 345°
2026-04-27 09:54 42.71714 -8.82844 36118 ft 440 kts 345°
2026-04-27 09:55 42.77733 -8.84466 36119 ft 440 kts 345°
2026-04-27 09:55 42.86716 -8.86903 36129 ft 440 kts 345°
2026-04-27 09:56 42.92733 -8.88538 36146 ft 440 kts 344°
2026-04-27 09:56 42.98752 -8.90181 36142 ft 440 kts 344°
2026-04-27 09:57 43.04729 -8.91813 36150 ft 439 kts 344°
2026-04-27 09:57 43.10738 -8.93458 36164 ft 439 kts 344°
2026-04-27 09:58 43.16710 -8.95100 36167 ft 439 kts 344°
2026-04-27 09:58 43.22682 -8.96738 36164 ft 439 kts 344°
2026-04-27 09:59 43.28679 -8.98386 36189 ft 439 kts 345°
2026-04-27 09:59 43.34644 -9.00031 36187 ft 438 kts 345°
2026-04-27 10:00 43.40634 -9.01685 36190 ft 438 kts 345°
2026-04-27 10:00 43.46587 -9.03332 36188 ft 438 kts 345°
2026-04-27 10:01 43.52576 -9.04985 36204 ft 438 kts 345°
2026-04-27 10:01 43.58530 -9.06635 36204 ft 438 kts 345°
2026-04-27 10:02 43.64496 -9.08294 36210 ft 438 kts 345°
2026-04-27 10:02 43.70493 -9.09963 36221 ft 437 kts 345°
2026-04-27 10:03 43.76431 -9.11623 36222 ft 437 kts 345°
2026-04-27 10:03 43.82393 -9.13298 36225 ft 436 kts 345°
2026-04-27 10:04 43.88316 -9.14958 36237 ft 436 kts 345°
2026-04-27 10:04 43.94262 -9.16635 36240 ft 435 kts 345°
2026-04-27 10:05 44.00205 -9.18316 36227 ft 435 kts 345°
2026-04-27 10:05 44.06113 -9.19983 36252 ft 435 kts 345°
2026-04-27 10:06 44.12059 -9.21662 36243 ft 434 kts 345°
2026-04-27 10:06 44.17951 -9.23329 36240 ft 434 kts 345°
2026-04-27 10:07 44.23875 -9.25015 36250 ft 434 kts 345°
2026-04-27 10:07 44.29797 -9.26710 36261 ft 434 kts 345°
2026-04-27 10:08 44.35719 -9.28411 36260 ft 433 kts 345°
2026-04-27 10:08 44.41596 -9.30091 36259 ft 433 kts 345°
2026-04-27 10:09 44.47519 -9.31783 36256 ft 433 kts 345°
2026-04-27 10:09 44.53401 -9.33465 36254 ft 433 kts 345°
2026-04-27 10:10 44.59322 -9.35162 36256 ft 433 kts 345°